[[{"header":{"parameterUnit":"m.s-1","parameterCategory":1,"la1":30.2991,"la2":30.254,"lo1":-89.0895,"lo2":-89.0444,"dy":0.0017,"dx":0.0017,"nx":28,"ny":28,"refTime":"2025-03-11T21:00:00:Z","depth":0,"parameterNumber":2,"parameterNumberName":"U-component_of_WINDS"},"data":[0,0,0,0,0,0,0,0,0,0,0,0,0,0,0,0,0,0,0,0,0,0,0,0,0,0,0,0,0,0,0,0,0,0,0,0,0,0,0,0,0,0,0,0,0,0,0,0,0,0,0,0,0,0,0,0,0,0,4.9951,4.9953,0,5.0087,5.0089,5.009,5.0015,5.0011,5.0007,5.0004,5.0145,5.0152,5.0159,0,0,0,0,0,0,0,0,0,0,0,0,0,4.9627,4.9634,4.9951,4.9953,4.9955,5.0087,5.0089,5.0091,5.0015,5.0011,5.0006,5.0002,5.0143,5.0151,5.016,0,0,0,0,0,0,0,0,0,0,0,0,0,4.9766,4.9636,4.9951,4.9933,4.9933,5.0086,5.0089,5.0091,5.0016,5.0011,5.0005,5.0,5.014,5.015,5.0161,5.0341,0,0,5.0194,5.0199,0,0,0,0,0,0,0,0,4.9758,4.9778,4.9934,4.9934,4.9934,5.0028,5.0026,5.0175,5.0018,4.9985,5.0004,4.9997,5.0111,5.0124,5.0162,5.0347,5.0353,5.0195,5.0202,5.0206,5.021,0,0,0,0,0,0,0,4.9749,4.9772,5.0005,4.9936,4.9937,4.9918,4.9932,5.0054,5.0078,4.9987,4.9982,4.9999,5.011,5.0151,5.0164,5.0355,5.0195,5.0205,5.0211,5.0216,5.0692,5.0698,0,0,0,0,0,0,4.974,4.9764,5.0001,5.0009,4.9831,4.9929,4.9944,5.0004,5.0076,5.0082,5.0004,4.9995,5.0135,5.0152,5.0169,5.0382,5.0206,5.0217,5.0223,5.0686,5.0694,5.07,0,0,0,0,0,0,4.9733,4.9762,4.9995,4.9885,4.9914,4.994,5.0008,5.0009,5.0051,5.0089,5.0093,5.0042,5.0132,5.0154,5.0298,5.0385,5.0221,5.0231,5.0679,5.0689,5.0697,5.081,0,0,0,0,0,0,4.9725,4.976,4.9828,4.9887,4.992,5.0122,5.0014,5.0016,5.0069,5.0059,5.0125,5.0131,5.0129,5.0282,5.0309,5.0397,5.024,5.0671,5.0683,5.0694,5.0798,5.0822,5.0842,0,0,0,0,0,4.9713,4.9856,4.9832,4.9861,5.0006,5.0127,5.0145,5.014,5.0077,5.0146,5.017,5.0129,5.0372,5.0297,5.0327,5.042,5.0666,5.068,5.0693,5.0789,5.0817,5.0841,0,0,0,0,0,0,4.9807,4.9863,4.9838,5.0004,5.0061,5.0114,5.02,5.0171,5.0248,5.0235,5.0226,5.0241,5.0391,5.042,5.0336,5.0597,5.0509,5.0529,5.0571,5.0599,5.062,5.0609,5.0249,0,0,0,0,0,4.9847,4.9941,4.9985,5.0127,5.0157,5.0174,5.0227,5.0217,5.0277,5.0301,5.0335,5.0395,5.0484,5.0544,5.0628,5.0803,5.0815,5.0882,5.0903,5.0921,5.0938,5.103,5.1059,5.0746,5.0746,5.0745,0,0,4.9931,4.9973,5.0033,5.0147,5.019,5.0286,5.0195,5.0302,5.0373,5.0317,5.0454,5.0482,5.0548,5.0707,5.0779,5.0736,5.1027,5.0939,5.0952,5.096,5.1047,5.1077,5.1103,5.0755,5.0753,5.0752,0,0,5.0132,5.0174,5.0296,5.0341,5.0407,5.0418,5.0447,5.0505,5.052,5.0658,5.0617,5.0702,5.0858,5.0905,5.095,5.1168,5.1132,5.1196,5.1309,5.1398,5.1423,5.1445,5.152,5.1547,5.1213,5.1214,5.1214,0,5.0228,5.0371,5.0362,5.0472,5.0522,5.0475,5.0598,5.0642,5.0734,5.0769,5.072,5.0912,5.0954,5.1122,5.1175,5.1214,5.1246,5.1187,5.142,5.1442,5.1462,5.1534,5.1562,5.1221,5.122,5.1219,5.1218,0,5.0484,5.0584,5.0675,5.0762,5.0823,5.0939,5.0947,5.101,5.0996,5.1011,5.1151,5.1199,5.1291,5.1331,5.1319,5.1498,5.1468,5.1421,5.1332,5.1499,5.1566,5.1594,5.1231,5.1228,5.1226,5.1224,0,0,5.0747,5.0828,5.0861,5.0899,5.0969,5.1046,5.1159,5.1248,5.1301,5.1366,5.146,5.1592,5.1546,5.1597,5.159,5.1669,5.1835,5.1611,5.1612,5.1648,5.2032,5.2066,5.2098,5.1813,5.1818,5.1822,5.2026,0,5.095,5.1147,5.1142,5.1325,5.1416,5.1373,5.1471,5.1524,5.1542,5.1622,5.1642,5.1734,5.1669,5.1699,5.1775,5.1799,5.1912,5.1785,5.1898,5.1902,5.188,5.2134,5.217,5.236,5.2052,5.2057,5.206,0,5.1214,5.1285,5.1477,5.1531,5.1569,5.1657,5.1738,5.1815,5.1875,5.1882,5.1938,5.1917,5.2031,5.1941,5.2097,5.2011,5.2057,5.2076,5.2083,5.2091,5.199,5.2146,5.2421,5.2448,5.2102,5.2099,5.2096,0,5.1383,5.1528,5.166,5.1695,5.1762,5.1825,5.1856,5.1909,5.1963,5.2034,5.2068,5.2152,5.2197,5.2262,5.2265,5.2199,5.2422,5.2332,5.2429,5.2429,5.2476,5.2473,5.2759,5.2511,5.2511,5.251,5.2509,0,5.1609,5.1727,5.1736,5.1818,5.1948,5.1942,5.2072,5.2097,5.2145,5.223,5.2199,5.2279,5.2279,5.2361,5.2364,5.2491,5.2513,5.2521,5.252,5.2522,5.2521,5.255,5.2536,5.2518,5.2516,5.2514,5.2513,0,5.1819,5.183,5.1971,5.2023,5.2039,5.2133,5.2177,5.2254,5.2269,5.2376,5.2401,5.2425,5.2519,5.2529,5.2639,5.2641,5.2794,5.278,5.2774,5.277,5.2866,5.2855,5.3179,5.322,5.2948,5.2951,5.2953,0,5.196,5.205,5.2111,5.2165,5.22,5.2288,5.2342,5.2339,5.2397,5.247,5.2538,5.2629,5.2702,5.2855,5.2882,5.2966,5.2952,5.306,5.2964,5.2963,5.295,5.2943,5.2951,5.3077,5.308,5.3083,5.3085,0,5.221,5.2211,5.229,5.2371,5.2436,5.2499,5.2559,5.2605,5.261,5.2676,5.2772,5.2828,5.294,5.3031,5.3113,5.3144,5.3115,5.3115,5.3141,5.3143,5.3134,5.3137,5.2821,5.3107,5.3105,5.3103,5.3102,5.3101,5.2389,5.2465,5.2519,5.2608,5.2652,5.2708,5.2782,5.2806,5.2886,5.2976,5.297,5.3075,5.3131,5.3238,5.3276,5.3357,5.3321,5.336,5.337,5.3379,5.3387,5.3123,5.3373,5.3372,5.3372,5.3371,5.3371,0,5.2634,5.2667,5.2748,5.2831,5.2901,5.2868,5.2931,5.2991,5.3084,5.3138,5.321,5.3319,5.3407,5.344,5.3525,5.3584,5.3573,5.3606,5.36,5.3608,5.3416,5.3383,5.3614,5.3614,5.3614,5.3614,5.3614,5.3614,5.2769,5.2896,5.2904,5.3052,5.3084,5.3186,5.3225,5.3277,5.3319,5.3442,5.3514,5.3536,5.3581,5.3669,5.3747,5.3755,5.3786,5.3825,5.3827,5.3646,5.3622,5.3598,5.3567,5.3833,5.3833,5.4011,5.4013,5.4014]},{"header":{"parameterUnit":"m.s-1","parameterCategory":1,"la1":30.2991,"la2":30.254,"lo1":-89.0895,"lo2":-89.0444,"dy":0.0017,"dx":0.0017,"nx":28,"ny":28,"refTime":"2025-03-11T21:00:00:Z","depth":0,"parameterNumber":3,"parameterNumberName":"V-component_of_WINDS"},"data":[0,0,0,0,0,0,0,0,0,0,0,0,0,0,0,0,0,0,0,0,0,0,0,0,0,0,0,0,0,0,0,0,0,0,0,0,0,0,0,0,0,0,0,0,0,0,0,0,0,0,0,0,0,0,0,0,0,0,2.9476,2.9478,0,2.9647,2.9649,2.9651,2.9675,2.9674,2.9672,2.967,2.9844,2.985,2.9856,0,0,0,0,0,0,0,0,0,0,0,0,0,2.9168,2.9173,2.9476,2.9478,2.948,2.9647,2.9649,2.9652,2.9675,2.9673,2.9672,2.967,2.9842,2.985,2.9857,0,0,0,0,0,0,0,0,0,0,0,0,0,2.9316,2.9175,2.9476,2.9512,2.9517,2.9646,2.9649,2.9652,2.9676,2.9673,2.9671,2.9669,2.984,2.9849,2.9858,2.9962,0,0,2.9886,2.989,0,0,0,0,0,0,0,0,2.9308,2.9328,2.9505,2.951,2.9516,2.9637,2.9604,2.9756,2.9676,2.9616,2.967,2.9668,2.9777,2.9792,2.9829,2.997,2.9978,2.9887,2.9892,2.9896,2.9899,0,0,0,0,0,0,0,2.9298,2.9321,2.9544,2.9507,2.9514,2.9519,2.9538,2.9633,2.9708,2.9621,2.9623,2.9643,2.978,2.982,2.9833,2.998,2.9887,2.9895,2.99,2.9904,3.0214,3.0217,0,0,0,0,0,0,2.9281,2.9312,2.9538,2.9549,2.9404,2.9527,2.9548,2.9601,2.9707,2.9721,2.9645,2.9643,2.9806,2.9822,2.9839,2.9968,2.9896,2.9905,2.991,3.0211,3.0215,3.0218,0,0,0,0,0,0,2.9274,2.9301,2.9531,2.9431,2.9461,2.9535,2.9594,2.9605,2.9646,2.9725,2.9738,2.9672,2.9804,2.9826,2.9931,2.9974,2.9909,2.9917,3.0208,3.0212,3.0216,3.0225,0,0,0,0,0,0,2.9265,2.9298,2.9339,2.9432,2.9466,2.9621,2.9597,2.9611,2.9661,2.9661,2.9754,2.9767,2.9804,2.9917,2.994,2.9985,2.9924,3.0205,3.021,3.0215,3.0221,3.0229,3.0235,0,0,0,0,0,2.9254,2.9335,2.9341,2.9369,2.9519,2.9624,2.9643,2.9685,2.9665,2.9706,2.9757,2.9764,2.9965,2.9928,2.9954,3.0002,3.0202,3.0208,3.0214,3.0218,3.0227,3.0235,0,0,0,0,0,0,2.9246,2.9348,2.9356,2.947,2.9538,2.9628,2.9681,2.9693,2.9768,2.9765,2.9812,2.9833,2.9935,2.9979,2.9936,3.0108,3.0082,3.0093,3.0076,3.0085,3.0092,3.008,2.9932,0,0,0,0,0,2.9257,2.9335,2.9419,2.9511,2.9545,2.9607,2.9654,2.968,2.9752,2.9781,2.984,2.9909,2.9988,3.0039,3.0116,3.0227,3.0247,3.0273,3.028,3.0286,3.0295,3.0356,3.0368,3.0238,3.0238,3.0238,0,0,2.9282,2.9347,2.9393,2.9511,2.9567,2.9645,2.9631,2.9715,2.9773,2.9794,2.9896,2.9941,3.0022,3.013,3.0181,3.017,3.0335,3.0294,3.0297,3.0304,3.0364,3.0376,3.0387,3.0242,3.0241,3.0241,0,0,2.9366,2.9424,2.9506,2.9562,2.9647,2.9687,2.9707,2.9795,2.9825,2.9929,2.9946,3.0015,3.015,3.0206,3.0253,3.0356,3.0365,3.038,3.0417,3.0476,3.0486,3.0495,3.0531,3.0544,3.0389,3.0389,3.0389,0,2.9386,2.9505,2.9547,2.963,2.968,2.9703,2.9786,2.9838,2.9943,2.9977,2.9964,3.0132,3.0188,3.0309,3.0334,3.0371,3.0394,3.037,3.0481,3.0491,3.05,3.0535,3.0549,3.039,3.039,3.039,3.039,0,2.9524,2.9606,2.9663,2.9764,2.9821,2.9903,2.9956,3.0009,3.0029,3.007,3.0175,3.0242,3.0332,3.0363,3.0384,3.0487,3.0477,3.0472,3.0447,3.0513,3.0547,3.0561,3.0392,3.0391,3.0391,3.0391,0,0,2.961,2.9732,2.9752,2.9797,2.9892,2.9955,3.0038,3.0126,3.017,3.0241,3.0311,3.0424,3.0419,3.0471,3.0498,3.0549,3.0626,3.0538,3.054,3.0551,3.0742,3.0746,3.0761,3.0632,3.0635,3.0637,3.0735,0,2.9705,2.9854,2.9893,3.0019,3.0095,3.0116,3.0187,3.0252,3.0293,3.0362,3.0406,3.0485,3.0473,3.0505,3.0556,3.0605,3.0665,3.0599,3.0697,3.07,3.0676,3.0778,3.0783,3.0873,3.0749,3.0751,3.0753,0,2.9837,2.991,3.0044,3.0127,3.016,3.0224,3.0307,3.0373,3.0446,3.0472,3.053,3.0551,3.0637,3.0606,3.0724,3.0678,3.072,3.075,3.0754,3.0765,3.073,3.0792,3.0902,3.0915,3.0774,3.0772,3.0771,0,2.9885,3.0017,3.0114,3.0152,3.0252,3.0296,3.0339,3.041,3.046,3.0533,3.0565,3.0647,3.0691,3.0753,3.0795,3.0769,3.0909,3.0882,3.0932,3.0931,3.0961,3.0959,3.1079,3.0988,3.0988,3.0987,3.0987,0,2.9987,3.0068,3.0137,3.0196,3.0287,3.033,3.0418,3.0462,3.0525,3.0592,3.0615,3.0678,3.073,3.0799,3.0832,3.0924,3.0944,3.0967,3.0975,3.0965,3.0962,3.0993,3.0988,3.0991,3.099,3.0989,3.0989,0,3.0057,3.0106,3.0213,3.0298,3.0321,3.0384,3.0456,3.0514,3.0554,3.0639,3.0662,3.0725,3.0808,3.0856,3.096,3.0982,3.1084,3.1089,3.1059,3.1063,3.111,3.1104,3.1255,3.1277,3.117,3.1171,3.1172,0,3.0119,3.0181,3.0273,3.032,3.0363,3.0439,3.049,3.0535,3.0587,3.0674,3.0721,3.0805,3.0874,3.1005,3.106,3.1139,3.1146,3.1193,3.1158,3.1146,3.1146,3.1142,3.1148,3.1199,3.12,3.1201,3.1202,0,3.0223,3.0244,3.0318,3.0399,3.0459,3.0525,3.0591,3.0628,3.0683,3.074,3.0825,3.0879,3.0985,3.1068,3.1151,3.1194,3.1207,3.1212,3.1228,3.1219,3.1199,3.1209,3.1076,3.1209,3.1208,3.1208,3.1207,3.1207,3.0291,3.0347,3.042,3.05,3.0554,3.0614,3.0673,3.072,3.0792,3.0882,3.0903,3.0992,3.1062,3.1175,3.1221,3.129,3.1282,3.1305,3.131,3.1315,3.1316,3.1187,3.1305,3.1305,3.1305,3.1305,3.1305,0,3.0396,3.0444,3.0517,3.0608,3.0671,3.0677,3.075,3.0801,3.0879,3.0944,3.1012,3.1108,3.1188,3.1248,3.133,3.1373,3.1381,3.1393,3.139,3.14,3.1319,3.1298,3.1386,3.1386,3.1385,3.1385,3.1385,3.1385,3.0458,3.0553,3.0583,3.0704,3.0751,3.0838,3.0879,3.0934,3.0986,3.1093,3.1159,3.1198,3.1261,3.1346,3.1419,3.1435,3.1464,3.1475,3.1491,3.1415,3.1406,3.1398,3.1377,3.1481,3.1481,3.1566,3.1567,3.1567]}]]